Cloud_Cover
0 0 0 0 0 4 18 92 1 66 16 0 0 0 0 0 0 0 0 5 5 1 0 0 0 2 0 1 1 3 5 0 0 0 0 0 0 0 0 0 0 0 0 0
0 0 0 0 5 12 93 100 27 63 1 2 0 0 0 0 0 0 0 0 2 19 35 4 0 0 5 3 5 84 5 0 0 0 0 0 0 0 0 0 0 0 0 0
0 0 0 0 5 60 31 81 99 100 90 12 0 0 0 0 0 0 0 0 0 0 2 6 5 5 6 2 58 98 91 23 38 6 0 0 0 0 0 0 0 0 0 0
0 0 0 0 1 1 4 5 32 100 100 100 2 0 0 0 0 0 0 0 0 0 0 0 1 0 0 0 2 33 100 100 97 50 26 3 0 0 0 0 0 0 0 0
0 0 0 0 0 0 0 5 13 100 100 89 5 4 0 0 0 0 0 0 0 0 0 0 0 0 0 0 0 2 99 90 100 100 84 4 0 1 0 0 0 0 0 0
4 0 0 0 0 0 0 6 5 34 100 40 60 100 100 5 0 0 0 1 1 0 0 0 0 0 0 0 0 0 0 64 98 100 79 11 59 69 95 0 5 0 11 92
12 6 0 0 0 0 0 42 3 27 50 98 92 72 41 6 49 5 0 0 2 0 2 0 0 0 0 0 0 0 5 13 66 100 40 100 76 99 100 51 100 81 52 79
13 24 0 0 0 0 0 8 24 95 34 8 95 44 42 37 11 46 62 3 0 3 0 0 0 0 0 0 18 21 75 58 100 100 67 83 10 64 89 99 100 100 95 94
0 0 0 2 0 0 10 39 20 99 54 5 44 62 60 5 32 45 45 44 33 55 46 53 3 0 0 15 51 100 82 91 61 100 19 100 63 100 82 100 97 88 74 100
65 0 0 0 0 0 2 0 47 100 96 31 20 46 97 81 54 24 25 92 94 17 5 26 34 3 10 6 5 17 68 100 60 47 46 3 16 78 100 91 100 100 100 100
92 5 1 1 0 5 5 13 100 67 3 75 60 89 58 62 55 31 8 7 6 5 0 0 0 0 0 0 0 0 1 2 4 0 0 0 53 86 100 100 100 100 100 100
0 0 3 1 0 38 100 100 98 10 4 20 2 21 16 53 44 5 5 5 1 9 14 31 0 0 0 0 0 0 98 45 11 10 72 100 100 100 100 100 100 100 100 100
28 5 16 45 3 6 100 98 90 94 28 85 100 78 100 100 100 100 97 87 66 66 55 91 96 32 11 0 0 0 46 100 100 100 100 100 100 100 100 100 100 100 100 100
100 100 100 100 99 92 100 97 50 39 28 14 34 87 100 100 100 100 100 96 44 20 89 97 55 100 99 5 0 0 4 100 100 100 100 100 100 100 100 100 100 100 100 100
82 100 100 100 100 86 24 39 3 9 22 64 46 100 100 100 100 100 100 100 100 100 100 100 100 100 100 10 0 2 50 100 100 100 100 100 100 100 100 100 100 100 100 100
100 100 100 100 100 97 82 98 6 44 100 100 100 98 100 100 100 100 100 55 95 97 100 100 100 100 80 96 23 11 57 100 100 100 100 100 100 100 100 100 100 100 100 100
100 100 100 100 100 100 97 53 100 100 100 100 100 100 100 100 100 100 95 100 88 41 76 53 98 80 6 20 55 78 74 100 100 100 100 100 100 100 100 100 100 100 100 100
100 100 100 95 100 99 100 100 100 100 100 100 100 100 100 100 100 11 28 90 86 37 5 39 100 79 14 6 18 83 45 100 100 100 100 100 100 100 100 100 100 100 100 100
100 100 100 100 100 100 100 100 100 100 100 100 100 100 100 100 100 100 100 82 81 67 5 96 100 98 31 40 6 12 13 98 100 100 100 100 100 100 100 100 100 100 100 100
100 100 100 100 100 100 100 100 100 100 100 100 100 100 100 100 100 100 99 100 22 9 62 100 75 18 13 73 53 72 95 98 100 100 100 100 95 100 100 100 100 100 100 100
100 100 100 100 100 100 100 100 100 100 100 100 75 89 100 99 100 90 100 67 63 18 88 91 39 9 65 85 6 16 78 100 100 100 100 100 100 100 100 100 100 100 100 100
100 100 100 100 100 100 100 100 100 100 100 100 100 100 100 100 100 100 100 12 49 78 100 100 100 100 86 46 40 72 90 100 99 100 94 100 100 100 100 100 100 100 100 100
100 100 100 100 100 100 100 100 100 100 98 87 100 100 98 100 100 100 100 41 31 66 87 75 95 100 90 100 99 92 92 65 99 100 100 92 100 100 100 100 100 100 100 100
100 100 100 100 100 100 100 100 100 98 100 100 100 100 100 100 100 100 100 100 100 86 94 100 89 62 96 96 67 100 94 70 64 100 84 100 100 100 100 100 100 100 100 100
100 100 100 100 100 100 100 100 100 100 100 100 100 100 100 100 100 100 100 100 100 100 100 100 83 11 13 91 16 74 100 100 99 98 75 75 67 84 100 100 100 100 100 100
100 100 100 100 100 100 100 100 100 100 100 100 100 100 100 100 100 100 100 100 100 100 94 98 75 7 5 10 80 15 64 100 100 100 89 95 100 100 100 100 93 100 100 100
100 100 100 100 100 100 100 100 100 100 100 100 100 100 100 100 100 100 100 100 90 92 10 5 5 12 5 5 5 37 68 60 90 100 100 100 100 100 100 100 100 100 97 55